Location: Newark
(25.6667°S, 25.9167°E)
Time: 12:27:50
(UTC+00:00)

N. Korean satellite - Visible Passes

Search period start: 23 September 2020 00:00
Search period end: 03 October 2020 00:00
Orbit: 455 x 503 km, 97.2° (Epoch: 22 September)

Date Brightness Start Highest point End Pass type
(mag) Time Alt. Az. Time Alt. Az. Time Alt. Az.
23 Sep 6.5 03:23:19 10° N 03:26:46 61° W 03:30:13 10° SSW visible
24 Sep 7.6 02:57:27 10° NNE 03:00:48 47° ESE 03:04:10 10° S visible
25 Sep 9.4 02:32:24 10° ENE 02:34:55 19° ESE 02:37:26 10° SSE visible
27 Sep 6.5 03:12:34 10° NNE 03:16:02 88° ESE 03:19:30 10° S visible
28 Sep 8.5 02:46:59 10° NE 02:50:05 31° ESE 02:53:12 10° SSE visible
29 Sep 10.0 02:22:29 10° ENE 02:24:13 13° ESE 02:25:57 10° SE visible
30 Sep 6.6 03:27:54 10° N 03:31:15 49° W 03:34:38 10° SSW visible
30 Sep 10.1 16:36:17 10° SW 16:38:10 14° WSW 16:40:02 10° WNW visible
01 Oct 7.2 03:01:53 10° NNE 03:05:16 57° ESE 03:08:40 10° S visible
02 Oct 9.2 02:36:38 10° NE 02:39:21 22° ESE 02:42:04 10° SSE visible
